Wind_Speed
24 25 25 24 24 24 24 24 25 26 26 25 25 25 26 25 24 25 26 25 25 25 26 26 26 26 26 26 25 25 25 25 25 27 27 27 27 26 26 27 26 26 26
25 25 25 24 24 25 25 25 26 26 26 26 26 26 26 26 26 25 26 26 26 26 27 27 27 27 27 27 27 27 28 27 27 28 28 29 29 28 28 28 28 28 28
26 25 25 24 24 24 25 25 25 26 26 26 27 26 26 27 27 27 27 27 27 27 27 28 28 28 28 28 29 29 30 30 29 29 29 30 30 30 30 30 29 30 30
26 25 25 25 25 25 25 25 25 26 26 26 26 27 27 27 27 27 27 27 27 28 28 28 29 29 30 29 30 30 30 31 31 31 31 31 30 31 32 31 31 31 32
25 24 25 25 25 25 26 26 26 26 26 27 26 26 26 26 26 26 27 27 28 29 29 30 30 29 29 30 31 31 31 32 32 33 33 33 33 32 32 33 33 33 33
24 24 25 25 26 26 27 26 26 27 26 26 26 25 25 25 25 26 27 27 28 29 30 30 30 30 30 30 30 32 32 32 33 34 34 35 35 34 34 34 33 33 34
25 25 25 25 26 27 27 27 27 27 26 26 26 25 25 26 26 26 27 27 28 29 29 29 31 31 31 31 31 32 33 33 34 35 35 35 36 36 35 35 34 34 34
25 24 25 25 26 26 27 27 27 27 27 27 26 26 26 26 27 27 27 27 28 29 29 29 30 31 32 32 32 32 32 33 34 35 36 37 36 37 37 37 36 35 35
24 24 25 25 26 27 27 26 26 26 26 26 26 26 26 26 26 27 27 28 28 28 29 30 30 31 32 33 33 34 34 34 34 35 36 37 38 38 38 38 37 36 36
25 25 24 25 25 26 25 25 25 26 25 25 26 26 27 27 27 27 27 27 28 29 29 31 31 32 32 32 33 34 35 35 35 35 36 37 38 38 38 39 39 38 38
24 24 24 24 25 25 25 24 24 25 24 25 26 26 27 27 27 27 27 28 28 29 29 30 31 32 32 32 33 34 35 35 35 35 36 36 38 38 39 39 39 39 39
23 24 24 24 24 24 24 24 24 24 24 25 25 26 27 27 28 28 28 28 29 29 30 30 30 31 32 32 32 33 34 34 34 35 36 36 37 38 39 39 40 40 40
22 22 23 23 23 24 24 24 24 23 24 25 25 25 26 27 28 28 28 28 28 29 30 30 30 30 31 32 33 33 33 34 34 35 36 36 37 38 39 39 39 40 41
23 22 22 22 22 23 23 24 23 23 23 24 25 26 27 27 28 28 28 28 28 28 29 30 30 30 30 31 33 33 32 32 33 34 35 36 37 38 39 40 40 41 41
22 21 22 22 22 23 23 23 23 23 24 24 25 25 26 27 27 27 27 27 27 28 28 29 30 29 29 30 30 31 32 33 33 34 34 35 36 37 39 40 40 40 41
21 21 21 22 22 22 22 22 23 23 24 25 24 24 25 26 26 26 27 27 27 28 28 29 30 30 30 30 30 30 30 32 33 34 33 34 35 36 38 38 39 40 41
20 20 21 21 21 21 21 22 22 23 24 24 24 24 25 25 25 25 26 26 27 27 27 27 29 29 29 29 29 30 30 31 33 34 33 33 34 36 37 38 39 40 41
20 20 20 20 20 21 21 22 23 23 23 24 24 24 25 25 25 24 24 25 25 26 25 25 26 27 28 29 29 29 30 31 32 33 33 33 33 35 36 37 38 39 41
19 20 19 19 20 21 21 22 23 23 23 24 24 24 24 24 24 24 24 24 24 24 24 24 25 26 26 27 28 28 29 30 31 32 33 34 34 34 36 37 38 39 40
18 19 19 19 20 21 22 23 23 23 22 23 23 23 23 22 22 22 23 23 23 23 24 24 24 25 25 26 26 27 27 28 29 30 31 32 33 33 34 36 37 37 38
18 18 19 19 20 21 21 21 22 22 22 21 21 21 21 21 21 21 21 22 23 23 23 24 23 24 25 25 26 26 27 27 28 29 30 30 32 33 33 34 35 36 37
17 18 19 19 20 19 20 21 22 21 21 21 20 20 20 20 20 20 21 22 22 22 22 22 23 24 24 25 26 26 27 27 27 27 28 29 30 31 31 32 32 34 34
17 18 18 19 19 19 20 21 21 21 21 20 20 20 20 20 19 20 21 21 21 21 22 22 22 23 24 24 25 25 25 27 27 27 27 27 28 28 29 30 30 31 32
16 16 17 18 19 20 21 21 21 21 21 21 21 21 20 20 20 20 20 21 21 21 22 22 23 23 23 23 24 25 25 26 26 26 27 26 27 27 28 29 29 30 31
17 17 18 19 20 21 21 21 21 22 22 21 21 21 20 20 20 20 21 21 21 21 22 22 23 23 23 23 24 24 24 24 24 26 27 27 26 27 27 27 28 29 30
17 18 19 20 20 21 21 22 22 22 22 21 22 22 21 21 21 21 21 21 20 20 21 21 22 23 22 22 23 23 24 24 23 23 25 26 26 27 27 27 28 29 29
Wind_Direction
294 292 290 288 285 284 283 283 281 279 278 277 275 273 271 271 270 268 266 265 264 263 262 261 260 259 258 257 255 254 252 251 249 248 247 247 247 248 245 242 242 241 240
294 293 289 287 286 287 285 285 282 278 277 276 273 272 271 268 267 267 264 265 265 264 263 259 259 257 257 256 254 254 253 252 250 249 248 247 247 247 246 243 243 243 242
294 292 289 288 287 288 289 285 283 279 277 276 274 272 269 268 268 266 264 264 264 264 263 261 259 257 256 257 257 255 253 253 251 249 248 247 246 247 247 246 244 243 243
292 290 289 289 290 290 290 288 285 282 279 277 275 272 270 269 268 267 265 264 264 263 263 261 259 258 257 256 256 255 254 254 252 251 248 246 246 246 245 245 245 243 243
290 289 289 289 290 291 292 290 287 283 282 278 275 273 270 269 268 266 266 266 265 265 264 262 261 260 258 257 256 255 254 254 253 251 249 247 246 245 245 244 244 244 243
289 289 290 289 290 291 291 290 287 285 283 280 277 273 271 269 269 267 267 266 266 265 264 262 259 259 260 259 258 256 255 255 253 250 248 247 245 244 244 243 243 243 243
292 291 292 291 290 290 290 289 287 285 283 279 278 276 273 271 270 270 268 267 267 266 264 263 261 260 260 260 260 258 256 255 253 250 248 247 245 244 243 243 243 243 243
293 292 294 292 291 290 290 289 288 285 283 280 278 276 274 272 270 270 268 268 268 267 265 264 263 261 261 260 259 258 256 253 252 251 249 247 246 244 243 243 243 242 242
292 292 293 293 293 293 291 289 289 287 283 280 278 275 272 271 271 271 269 268 268 267 266 265 264 263 262 260 258 257 256 254 252 251 249 248 247 246 244 244 243 242 242
292 293 294 294 294 295 294 292 291 289 284 281 278 275 273 272 270 269 271 270 270 270 268 266 265 265 263 261 259 258 256 256 255 253 250 248 248 247 246 244 244 243 242
293 292 294 294 295 294 295 294 292 290 285 282 280 277 275 274 273 272 271 272 272 271 269 268 267 266 263 260 259 258 257 257 255 253 251 250 248 246 246 245 244 244 243
295 294 294 296 296 294 295 294 294 291 287 284 282 280 277 275 274 274 272 271 271 272 272 271 269 266 263 261 259 258 257 256 255 253 252 250 248 246 245 245 245 245 244
300 300 300 301 300 299 299 299 296 293 291 287 283 282 281 279 278 276 274 272 271 271 271 271 270 268 264 260 259 257 257 255 254 253 253 251 250 247 246 245 245 245 244
303 304 305 304 303 302 302 301 298 296 294 290 286 285 285 284 282 279 277 274 272 271 271 270 270 269 267 263 259 258 258 256 255 253 252 251 251 248 247 246 246 245 244
305 306 305 305 305 305 305 303 300 297 295 293 289 286 286 286 284 281 279 277 274 273 271 270 269 269 268 265 262 260 258 257 256 254 253 251 250 249 248 246 245 245 244
308 308 307 306 306 307 306 304 301 299 297 295 293 291 288 287 285 282 282 280 278 277 274 270 269 268 267 266 264 261 260 257 257 256 254 254 253 251 248 248 247 246 244
312 312 311 310 309 310 309 307 304 301 299 296 293 291 290 287 286 284 284 283 281 279 276 272 270 267 266 265 263 262 260 259 258 258 258 256 254 252 251 250 248 247 246
313 314 314 313 313 312 312 310 308 304 300 298 296 294 293 291 289 286 285 284 283 281 278 274 270 269 266 265 263 262 260 261 260 260 258 257 256 253 252 251 250 248 247
314 315 316 315 316 315 313 312 311 310 305 301 299 298 296 293 292 288 285 284 283 283 280 278 272 269 267 266 265 263 262 261 261 260 259 258 256 254 253 252 250 249 248
317 318 319 319 318 317 315 313 314 313 312 308 305 303 301 297 294 291 289 285 285 285 282 278 274 270 268 267 267 265 265 263 262 261 260 259 257 255 254 252 250 249 248
321 323 323 322 321 320 319 318 317 315 314 314 310 307 305 301 296 294 292 289 287 285 282 278 274 271 271 270 271 268 267 265 263 262 260 258 257 256 255 253 250 249 248
329 328 326 325 325 324 322 321 320 319 318 316 314 311 307 304 298 294 294 294 291 287 283 280 277 275 275 275 275 273 270 268 267 263 260 259 258 256 254 252 250 249 248
331 331 330 329 329 329 326 325 324 322 321 320 319 315 311 307 303 300 299 297 294 291 288 285 281 279 277 275 275 274 272 272 269 267 263 261 260 258 255 252 251 249 248
338 337 335 332 331 329 328 327 327 325 325 326 325 320 316 313 311 308 304 301 296 293 290 288 287 284 282 279 277 275 273 272 268 266 264 261 260 259 257 254 252 251 250
340 338 336 335 333 332 330 329 329 329 328 327 327 325 323 320 316 313 310 307 302 298 296 293 289 286 284 281 278 277 277 273 269 266 264 262 259 258 256 255 253 251 250
340 339 338 337 336 334 333 332 330 330 329 328 328 327 326 322 317 315 314 311 307 302 298 296 292 290 287 284 281 280 280 275 271 267 265 263 260 257 256 255 254 253 251
Height
5834 5832 5830 5828 5826 5824 5822 5821 5819 5818 5817 5816 5815 5813 5813 5812 5811 5811 5810 5810 5810 5810 5810 5810 5811 5811 5812 5813 5813 5814 5815 5816 5817 5818 5820 5821 5823 5824 5826 5827 5829 5831 5833
5828 5826 5824 5822 5820 5818 5816 5815 5813 5812 5811 5810 5808 5807 5806 5805 5805 5804 5803 5803 5803 5803 5803 5804 5804 5804 5805 5806 5807 5808 5809 5810 5811 5812 5813 5815 5817 5818 5820 5821 5823 5825 5827
5822 5820 5818 5816 5814 5812 5810 5808 5807 5805 5804 5803 5802 5800 5799 5798 5798 5797 5797 5796 5796 5796 5796 5797 5797 5797 5798 5799 5800 5801 5802 5803 5804 5805 5807 5808 5810 5812 5814 5815 5817 5819 5821
5815 5813 5811 5809 5807 5805 5804 5802 5800 5799 5797 5796 5795 5793 5792 5791 5791 5790 5790 5789 5789 5790 5790 5790 5790 5790 5791 5791 5792 5793 5794 5795 5797 5798 5799 5801 5803 5805 5807 5808 5810 5812 5814
5808 5806 5804 5803 5801 5799 5797 5795 5793 5792 5790 5788 5787 5786 5785 5784 5784 5783 5783 5782 5782 5782 5782 5782 5782 5782 5783 5784 5784 5785 5786 5787 5789 5790 5791 5793 5795 5797 5799 5801 5803 5805 5807
5801 5800 5798 5796 5794 5792 5790 5788 5786 5784 5783 5781 5780 5779 5778 5777 5777 5776 5775 5775 5775 5774 5774 5774 5775 5775 5775 5776 5776 5777 5778 5779 5780 5782 5783 5785 5787 5789 5791 5793 5795 5798 5800
5795 5793 5791 5788 5786 5784 5782 5780 5778 5777 5775 5774 5773 5771 5771 5770 5769 5769 5768 5767 5767 5766 5766 5766 5767 5767 5767 5768 5768 5768 5769 5770 5772 5773 5774 5776 5778 5780 5782 5785 5787 5790 5792
5788 5786 5784 5782 5780 5777 5775 5773 5771 5769 5768 5766 5765 5764 5763 5763 5762 5761 5760 5760 5759 5758 5758 5758 5758 5758 5759 5759 5760 5760 5760 5761 5763 5764 5765 5767 5769 5771 5774 5776 5778 5781 5784
5782 5779 5777 5775 5772 5770 5768 5765 5763 5762 5760 5758 5757 5756 5755 5755 5754 5753 5752 5751 5751 5750 5750 5749 5750 5750 5750 5750 5750 5751 5751 5752 5753 5755 5756 5758 5760 5762 5764 5767 5769 5772 5775
5775 5773 5770 5768 5765 5763 5760 5758 5755 5754 5752 5750 5749 5748 5747 5747 5746 5745 5744 5743 5742 5742 5741 5740 5740 5740 5740 5741 5741 5741 5742 5743 5744 5745 5746 5748 5750 5752 5755 5757 5760 5763 5765
5769 5766 5763 5760 5758 5756 5753 5751 5748 5746 5744 5742 5741 5740 5739 5738 5737 5737 5736 5735 5733 5733 5732 5731 5731 5731 5731 5731 5732 5732 5732 5733 5734 5735 5736 5738 5740 5742 5745 5747 5750 5753 5756
5762 5759 5756 5753 5751 5749 5746 5744 5741 5738 5736 5734 5733 5731 5730 5729 5728 5728 5727 5726 5725 5724 5723 5722 5721 5721 5721 5721 5722 5723 5723 5724 5724 5725 5726 5728 5730 5732 5734 5737 5740 5743 5746
5756 5753 5750 5747 5744 5741 5739 5737 5734 5731 5729 5727 5725 5724 5722 5721 5720 5719 5718 5717 5716 5715 5714 5713 5712 5712 5711 5712 5712 5713 5713 5714 5715 5716 5717 5718 5720 5722 5724 5727 5729 5732 5735
5750 5747 5744 5741 5738 5735 5732 5729 5727 5725 5722 5720 5718 5716 5714 5712 5711 5709 5709 5708 5707 5706 5705 5704 5703 5702 5702 5702 5702 5703 5703 5704 5705 5706 5707 5709 5710 5712 5714 5716 5719 5721 5724
5745 5741 5738 5735 5732 5729 5726 5723 5720 5718 5716 5713 5711 5708 5706 5704 5702 5701 5699 5698 5698 5696 5696 5695 5694 5693 5693 5693 5693 5693 5694 5695 5695 5696 5697 5698 5700 5701 5703 5705 5708 5710 5713
5739 5736 5732 5729 5726 5723 5720 5717 5714 5711 5709 5706 5703 5701 5698 5696 5694 5692 5690 5689 5688 5687 5686 5685 5684 5684 5684 5683 5683 5684 5684 5685 5686 5686 5687 5688 5689 5690 5692 5694 5696 5699 5702
5734 5730 5727 5724 5720 5717 5714 5710 5707 5704 5701 5698 5696 5693 5690 5688 5686 5684 5682 5680 5679 5678 5677 5676 5675 5674 5674 5674 5674 5674 5675 5675 5676 5676 5677 5677 5678 5680 5681 5683 5685 5688 5691
5729 5725 5722 5719 5715 5712 5708 5704 5701 5697 5694 5691 5688 5685 5683 5680 5678 5676 5674 5672 5670 5669 5668 5667 5666 5666 5665 5665 5665 5665 5666 5666 5666 5667 5667 5667 5668 5669 5670 5672 5674 5676 5679
5724 5720 5717 5714 5710 5706 5703 5699 5695 5691 5688 5685 5681 5678 5675 5673 5670 5668 5666 5664 5663 5661 5660 5659 5658 5657 5657 5656 5656 5656 5656 5656 5656 5657 5657 5657 5658 5659 5660 5661 5663 5665 5668
5719 5716 5713 5709 5705 5702 5698 5694 5690 5685 5682 5678 5675 5672 5669 5666 5663 5661 5659 5657 5655 5654 5652 5651 5650 5649 5649 5648 5647 5647 5647 5647 5647 5647 5647 5647 5648 5649 5650 5651 5653 5655 5657
5715 5712 5708 5705 5701 5697 5693 5689 5685 5681 5677 5673 5670 5666 5663 5660 5657 5655 5652 5650 5648 5646 5645 5643 5642 5642 5641 5640 5639 5639 5639 5638 5638 5637 5637 5638 5639 5639 5640 5641 5642 5644 5646
5712 5708 5705 5701 5697 5693 5689 5684 5680 5676 5672 5668 5664 5661 5657 5654 5651 5649 5646 5644 5641 5639 5637 5636 5635 5634 5633 5632 5631 5630 5630 5630 5629 5629 5628 5629 5629 5630 5630 5631 5633 5634 5636
5709 5705 5701 5697 5693 5689 5685 5680 5676 5672 5667 5663 5660 5656 5652 5649 5646 5643 5640 5637 5635 5632 5630 5629 5628 5626 5625 5624 5624 5623 5621 5621 5620 5619 5619 5620 5620 5621 5621 5622 5623 5625 5626
5706 5702 5699 5695 5690 5686 5681 5677 5672 5668 5664 5659 5655 5651 5647 5644 5640 5637 5634 5631 5629 5626 5624 5622 5620 5619 5617 5616 5615 5614 5613 5612 5612 5611 5610 5611 5611 5612 5612 5613 5614 5615 5617
5704 5700 5696 5692 5688 5683 5678 5674 5669 5664 5660 5656 5651 5647 5643 5639 5636 5632 5629 5625 5623 5620 5617 5615 5613 5611 5610 5608 5607 5606 5605 5604 5603 5602 5602 5602 5603 5603 5604 5605 5605 5606 5608
5702 5698 5694 5689 5685 5680 5675 5670 5665 5661 5656 5652 5648 5643 5639 5634 5631 5627 5623 5620 5617 5614 5611 5609 5607 5604 5603 5601 5599 5598 5596 5596 5595 5595 5594 5593 5594 5594 5596 5596 5596 5597 5598